Riga, Latvia

3:06 PM EEST on September 22, 2017 (GMT +0300)
Riga International

Weather History for EVRA - March, 2014

Change the Weather History Date:

Wednesday, March 12, 2014

  Actual Average Record
Temperature  
Mean Temperature 40 °F -  
Max Temperature 53 °F 43 °F 57 °F (1997)
Min Temperature 26 °F 27 °F 0 °F (2013)
Degree Days  
Heating Degree Days 26    
Moisture  
Dew Point 27 °F    
Average Humidity 62    
Maximum Humidity 100    
Minimum Humidity 18    
Precipitation  
Precipitation 0.00 in 0.04 in - ()
Sea Level Pressure  
Sea Level Pressure 30.36 in    
Wind  
Wind Speed 5 mph ()    
Max Wind Speed 10 mph    
Max Gust Speed -    
Visibility 6.0 miles    
Events      
Averages and records for this station are not official NWS values.
T = Trace of Precipitation, MM = Missing Value Source: Averaged Metar Reports

Daily Weather History Graph

Daily Weather History Graph

Search for Another Location

Airport or City:

Trip Planner

Search our weather history database for the weather conditions in past years. The results will help you decide how hot, cold, wet, or windy it might be!

Date:

Astronomy

Mar. 12, 2014 Rise Set
Actual Time 6:48 AM EET 6:20 PM EET
Civil Twilight 6:10 AM EET 6:58 PM EET
Nautical Twilight 5:25 AM EET 7:42 PM EET
Astronomical Twilight 4:39 AM EET 8:29 PM EET
Moon 1:57 PM EET (3/12) 4:46 AM EET (3/12)
Length of Visible Light 12h 47m
Length of Day
11h 31m
Waxing Gibbous, 83% of the Moon is Illuminated
Mar 12
Waxing Gibbous
Mar 16
Full
Mar 24
Last Quarter
Mar 30
New
Apr 7
First Quarter

Hourly Weather History & Observations

Time (EET) Temp. Windchill Dew Point Humidity Pressure Visibility Wind Dir Wind Speed Gust Speed Precip Events Conditions
12:20 AM 35.6 °F 29.9 °F 32.0 °F 87% 30.45 in - NW 6.9 mph - N/A   Clear
12:50 AM 35.6 °F 31.7 °F 32.0 °F 87% 30.45 in - WNW 4.6 mph - N/A   Clear
1:20 AM 35.6 °F 29.9 °F 32.0 °F 87% 30.45 in - WNW 6.9 mph - N/A   Clear
1:50 AM 33.8 °F 27.0 °F 30.2 °F 87% 30.45 in - WNW 8.1 mph - N/A   Clear
2:00 AM 34 °F - 31 °F 85% 30.47 in 6 mi 6.7 mph - -  
2:20 AM 33.8 °F 27.7 °F 32.0 °F 93% 30.45 in - WNW 6.9 mph - N/A   Clear
2:50 AM 33.8 °F 28.6 °F 30.2 °F 87% 30.45 in - WNW 5.8 mph - N/A   Clear
3:20 AM 33.8 °F 29.6 °F 30.2 °F 87% 30.45 in - West 4.6 mph - N/A   Clear
3:50 AM 33.8 °F 30.8 °F 30.2 °F 87% 30.45 in - SW 3.5 mph - N/A   Clear
4:20 AM 30.2 °F 25.4 °F 28.4 °F 93% 30.45 in - South 4.6 mph - N/A   Clear
4:50 AM 28.4 °F - 28.4 °F 100% 30.45 in - SSW 2.3 mph - N/A   Clear
5:00 AM 28 °F - 28 °F 97% 30.47 in 6 mi SSW 2.2 mph - -  
5:20 AM 28.4 °F 24.6 °F 26.6 °F 93% 30.45 in - SSW 3.5 mph - N/A   Clear
5:50 AM 26.6 °F 22.6 °F 26.6 °F 100% 30.45 in - SSW 3.5 mph - N/A   Clear
6:20 AM 26.6 °F 22.6 °F 26.6 °F 100% 30.45 in - SSW 3.5 mph - N/A   Clear
6:50 AM 28.4 °F 23.3 °F 26.6 °F 93% 30.45 in - South 4.6 mph - N/A   Clear
7:20 AM 32.0 °F 27.5 °F 30.2 °F 93% 30.42 in - SW 4.6 mph - N/A   Clear
7:50 AM 33.8 °F 29.6 °F 30.2 °F 87% 30.42 in - SSW 4.6 mph - N/A   Clear
8:00 AM 34 °F - 29 °F 77% 30.44 in 6 mi 4.5 mph - -  
8:20 AM 35.6 °F 31.7 °F 30.2 °F 81% 30.42 in - SW 4.6 mph - N/A   Clear
8:50 AM 37.4 °F 33.8 °F 30.2 °F 75% 30.42 in - SW 4.6 mph - N/A   Clear
9:20 AM 39.2 °F 35.0 °F 30.2 °F 70% 30.42 in - WSW 5.8 mph - N/A   Clear
9:50 AM 41.0 °F 37.1 °F 30.2 °F 65% 30.45 in - Variable 5.8 mph - N/A   Clear
10:20 AM 42.8 °F 38.6 °F 30.2 °F 61% 30.45 in - WSW 6.9 mph - N/A   Clear
10:50 AM 42.8 °F 38.6 °F 30.2 °F 61% 30.42 in - WSW 6.9 mph - N/A   Clear
11:00 AM 45 °F - 30 °F 43% 30.44 in 6 mi 6.7 mph - -  
11:20 AM 46.4 °F 42.4 °F 30.2 °F 53% 30.42 in - Variable 8.1 mph - N/A   Clear
11:50 AM 46.4 °F 41.9 °F 28.4 °F 50% 30.42 in - WSW 9.2 mph - N/A   Clear
12:20 PM 48.2 °F - 28.4 °F 46% 30.39 in - WSW 6.9 mph - N/A   Clear
12:50 PM 48.2 °F - 28.4 °F 46% 30.39 in - WSW 10.4 mph - N/A   Clear
1:20 PM 50.0 °F - 26.6 °F 40% 30.36 in - WSW 10.4 mph - N/A   Clear
1:50 PM 50.0 °F - 26.6 °F 40% 30.36 in - Variable 10.4 mph - N/A   Clear
2:00 PM 50 °F - 27 °F 28% 30.37 in 6 mi 8.9 mph - -  
2:20 PM 51.8 °F - 26.6 °F 38% 30.33 in - WSW 9.2 mph - N/A   Clear
2:50 PM 51.8 °F - 26.6 °F 38% 30.33 in - West 9.2 mph - N/A   Clear
3:20 PM 51.8 °F - 26.6 °F 38% 30.33 in - West 8.1 mph - N/A   Clear
3:50 PM 53.6 °F - 26.6 °F 35% 30.30 in - West 5.8 mph - N/A   Clear
4:20 PM 53.6 °F - 24.8 °F 33% 30.30 in - WSW 6.9 mph - N/A   Clear
4:50 PM 53.6 °F - 24.8 °F 33% 30.30 in - WSW 5.8 mph - N/A   Clear
5:00 PM 53 °F - 22 °F 18% 30.30 in 6 mi 6.7 mph - -  
5:20 PM 51.8 °F - 23.0 °F 33% 30.27 in - West 5.8 mph - N/A   Clear
5:50 PM 51.8 °F - 23.0 °F 33% 30.27 in - WSW 4.6 mph - N/A   Clear
6:20 PM 50.0 °F - 21.2 °F 32% 30.27 in - WSW 3.5 mph - N/A   Clear
6:50 PM 48.2 °F - 21.2 °F 34% 30.27 in - Variable 2.3 mph - N/A   Clear
7:20 PM 46.4 °F - 21.2 °F 37% 30.27 in - Variable 2.3 mph - N/A   Clear
7:50 PM 42.8 °F - 23.0 °F 46% 30.24 in - Variable 2.3 mph - N/A   Clear
8:00 PM 45 °F - 21 °F 25% 30.27 in 6 mi 4.5 mph - -  
8:20 PM 44.6 °F - 21.2 °F 39% 30.24 in - Variable 2.3 mph - N/A   Clear
8:50 PM 37.4 °F 33.8 °F 24.8 °F 60% 30.24 in - SSW 4.6 mph - N/A   Clear
9:20 PM 39.2 °F 35.9 °F 23.0 °F 52% 30.24 in - SSW 4.6 mph - N/A   Clear
9:50 PM 35.6 °F 31.7 °F 24.8 °F 65% 30.24 in - SSW 4.6 mph - N/A   Clear
10:20 PM 37.4 °F 33.8 °F 24.8 °F 60% 30.24 in - SSW 4.6 mph - N/A   Clear
10:50 PM 37.4 °F 33.8 °F 24.8 °F 60% 30.24 in - SW 4.6 mph - N/A   Clear
11:00 PM 38 °F - 26 °F 51% 30.24 in 6 mi 4.5 mph - -  
11:20 PM 37.4 °F 33.8 °F 26.6 °F 65% 30.21 in - SSW 4.6 mph - N/A   Clear
11:50 PM 33.8 °F 28.6 °F 26.6 °F 75% 30.21 in - SSW 5.8 mph - N/A   Clear